Other Surface Observations
Issued by NWS Upton, NY

Home | Current Version | Previous Version | Text Only | Print | Product List | Glossary On
Versions: 1 2 3 4 5 6 7 8 9 10 11 12 13 14 15 16 17 18 19 20 21 22 23 24 25 26 27 28 29 30 31 32 33 34 35 36 37 38 39 40 41 42 43 44 45 46 47 48 49 50
000
SXUS51 KOKX 222357
OSOOKX
New York City Metropolitan Area Weather Roundup
National Weather Service New York NY
800 PM EDT SUN APR 22 2018

CITY           SKY/WX    TMP DP  RH WIND       PRES   REMARKS
Central Park   FAIR      55  21  26 S6        30.36R
LaGuardia Arpt FAIR      55  21  26 S12G21    30.34R
Kennedy Intl   FAIR      48  33  56 S18       30.36R
Newark Liberty FAIR      57  30  35 VRB3      30.33R
Teterboro Arpt FAIR      56  23  27 S9        30.33R
Bronx Bot Gard   N/A     54  23  30 S8        30.34S
Bronx Lehman C   N/A     55  23  28 S10         N/A
Queens College   N/A     52  28  40 S12         N/A
Breezy Point     N/A     46 N/A N/A S15         N/A
Brooklyn Coll    N/A     52  27  37 SE12        N/A
Staten Island    N/A     55  30  38 S8          N/A

>>>>>>>>>>>>>>>>>>>>>>>>>>>>>>>>> KEY <<<<<<<<<<<<<<<<<<<<<<<<<<<<<<<
> SKY/WX - Sky Condition/Present    : R : WCI - Wind Chill Index    <
>          Weather                  : E : VSB - Visibility in Miles <
> TMP    - Temperature in Deg F     : M : HX  - Heat Index          <
> DP     - Dew Point Temperature    : A : TC  - Temperature in      <
> RH     - Relative Humidity        : R :       Celsius             <
> WIND   - Direction/Speed (mph)    : K : VRB - Variable Wind Dir   <
> PRES   - Pressure (in Hg)         : S :                           <
>>>>>>>>>>>>>>>>>>>>>>>>>>>>>>>>> KEY <<<<<<<<<<<<<<<<<<<<<<<<<<<<<<<




USA.gov is the U.S. government's official web portal to all federal, state and local government web resources and services.